Location: Fort Worth, Tx
(32.7431°N, 97.3695°W)
Time: 17:56:12
(UTC-04:00)

Transit 4A - Pass Details

Date: 29 February 2024
Orbit: 871 x 972 km, 66.8° (Epoch: 21 April)

Event Time Altitude Azimuth Distance (km) Brightness Sun altitude
Rises 10:06:48 0° 346° (NNW) 3,478 10.5 24.9°
Reaches altitude 10° 10:09:42 10° 358° (N) 2,528 10.0 25.4°
Maximum altitude 10:14:35 27° 55° (NE) 1,611 9.7 26.3°
Drops below altitude 10° 10:19:26 10° 113° (ESE) 2,513 11.9 27.2°
Sets 10:22:17 0° 125° (SE) 3,453 12.2 27.7°
